This is the latest recevied weather packets stored in our database for station/object W4DEX-2. If no packets are shown the sender has not sent any weather packets the latest 10 day(s).
| Time | Temp. | Humidity | Pressure | Rain* | Wind** | Luminosity | Snow |
|---|---|---|---|---|---|---|---|
| 1778029802 | 20.56° C | 43% | 1013.6 hPa | 0 mm | 4.92 m/s, 177° | - | - |
| 1778029502 | 20.56° C | 43% | 1013.6 hPa | 0 mm | 4.92 m/s, 178° | - | - |
| 1778028902 | 21.11° C | 42% | 1013.5 hPa | 0 mm | 4.92 m/s, 176° | - | - |
| 1778028602 | 21.11° C | 42% | 1013.3 hPa | 0 mm | 5.36 m/s, 175° | - | - |
| 1778028306 | 21.11° C | 42% | 1013.5 hPa | 0 mm | 5.36 m/s, 178° | - | - |
| 1778028002 | 21.11° C | 41% | 1013.3 hPa | 0 mm | 4.92 m/s, 176° | - | - |
| 1778027702 | 21.11° C | 41% | 1013.5 hPa | 0 mm | 5.36 m/s, 174° | - | - |
| 1778026202 | 22.22° C | 38% | 1013.1 hPa | 0 mm | 5.36 m/s, 178° | - | - |
| 1778025902 | 22.78° C | 37% | 1013.1 hPa | 0 mm | 4.92 m/s, 179° | - | - |
| 1778025603 | 22.78° C | 37% | 1013 hPa | 0 mm | 5.36 m/s, 175° | - | - |
| 1778025002 | 22.78° C | 37% | 1013.3 hPa | 0 mm | 5.36 m/s, 176° | - | - |
| 1778024702 | 22.78° C | 37% | 1013.1 hPa | 0 mm | 4.92 m/s, 179° | - | - |
| 1778024403 | 23.33° C | 37% | 1013.2 hPa | 0 mm | 5.81 m/s, 179° | - | - |
| 1778024103 | 23.33° C | 36% | 1013.2 hPa | 0 mm | 5.36 m/s, 178° | - | - |
| 1778023803 | 23.33° C | 36% | 1013.1 hPa | 0 mm | 5.36 m/s, 179° | - | - |
| 1778023202 | 23.89° C | 34% | 1013 hPa | 0 mm | 5.36 m/s, 181° | - | - |
| 1778022902 | 23.89° C | 34% | 1013 hPa | 0 mm | 5.36 m/s, 173° | - | - |
| 1778022302 | 23.89° C | 34% | 1013.2 hPa | 0 mm | 5.36 m/s, 183° | - | - |
| 1778022002 | 24.44° C | 34% | 1013.1 hPa | 0 mm | 4.92 m/s, 177° | - | - |
| 1778021702 | 24.44° C | 33% | 1013.1 hPa | 0 mm | 4.92 m/s, 177° | - | - |
| 1778021402 | 24.44° C | 34% | 1013.2 hPa | 0 mm | 5.36 m/s, 180° | - | - |
| 1778021103 | 24.44° C | 34% | 1013.2 hPa | 0 mm | 4.92 m/s, 179° | - | - |
| 1778020803 | 25° C | 33% | 1013.2 hPa | 0 mm | 4.92 m/s, 178° | - | - |
| 1778020502 | 25.56° C | 32% | 1013.2 hPa | 0 mm | 5.36 m/s, 178° | - | - |
| 1778020202 | 25.56° C | 31% | 1013.2 hPa | 0 mm | 4.92 m/s, 179° | - | - |
* Rain latest hour (hover to see other rain measurements)
** Current wind speed in m/s (hover to see current wind gust speed)